sat.trackr.live / text

‹ back to catalog

STARLINK-35660

NORAD 67003 · 2025-293A

PAYLOAD ACTIVE UNKNOWN

§ Identity

Operator
Country
US
Launch date
2025-12-10
Launch site
AFWTR
Launch vehicle
Mass (kg)
RCS (m²)

Purposes: comms

External: N2YO · Heavens-Above · Gunter

§ Orbital elements

Epoch: 2026-05-24T17:37:46.803936Z

Period
96.11 min
Inclination
70.0007°
Eccentricity
0.0003396
Mean motion
14.98334471 rev/d
Perigee alt
569.7 km
Apogee alt
574.4 km
Semi-major
6,950.2 km
B*
1.9903e-4
RAAN
262.9186°
Arg perigee
268.8681°
Mean anomaly
91.2089°
Rev number
2,627

§ Raw data

STARLINK-356601 67003U 25293A   26144.73456949  .00002283  00000+0  19903-3 0  99902 67003  70.0007 262.9186 0003396 268.8681  91.2089 14.98334471 26276

JSON: /api/v1/satellites/67003 · /tle

For live sub-satellite position, see the globe view (requires WebGL).

§ Visibility from observer

Set your observer location to see the next 7 days of passes ≥ 10°. The values pass through the URL so the page stays shareable.

No JS? Fill the form by hand. The geolocation button needs JavaScript.